date,time,water_lv
2020-06-01,00:00:00,155.01
2020-06-01,00:10:00,155.01
2020-06-01,00:20:00,155.01
2020-06-01,00:30:00,155.01
2020-06-01,00:40:00,155.01
2020-06-01,00:50:00,155.01
2020-06-01,01:00:00,155
2020-06-01,01:10:00,155
2020-06-01,01:20:00,-
2020-06-01,01:30:00,155
2020-06-01,01:40:00,155
2020-06-01,01:50:00,155
2020-06-01,02:00:00,155
2020-06-01,02:10:00,155
2020-06-01,02:20:00,154.99
2020-06-01,02:30:00,154.99
2020-06-01,02:40:00,154.99
2020-06-01,02:50:00,154.99
2020-06-01,03:00:00,154.98
2020-06-01,03:10:00,154.98
2020-06-01,03:20:00,154.98
2020-06-01,03:30:00,154.98
2020-06-01,03:40:00,154.98
2020-06-01,03:50:00,154.98
2020-06-01,04:00:00,154.97
2020-06-01,04:10:00,154.97
2020-06-01,04:20:00,154.97
2020-06-01,04:30:00,154.97
2020-06-01,04:40:00,154.97
2020-06-01,04:50:00,154.96
2020-06-01,05:00:00,154.96
2020-06-01,05:10:00,154.96
2020-06-01,05:20:00,154.96
2020-06-01,05:30:00,154.96
2020-06-01,05:40:00,154.95
2020-06-01,05:50:00,154.95
2020-06-01,06:00:00,154.95
2020-06-01,06:10:00,154.95
2020-06-01,06:20:00,154.94
2020-06-01,06:30:00,154.94
2020-06-01,06:40:00,154.94
2020-06-01,06:50:00,154.94
2020-06-01,07:00:00,154.94
2020-06-01,07:10:00,154.94
2020-06-01,07:20:00,154.93
2020-06-01,07:30:00,154.93
2020-06-01,07:40:00,154.93
2020-06-01,07:50:00,154.92
2020-06-01,08:00:00,154.92
2020-06-01,08:10:00,154.92
2020-06-01,08:20:00,154.92
2020-06-01,08:30:00,154.92
2020-06-01,08:40:00,154.91
2020-06-01,08:50:00,154.91
2020-06-01,09:00:00,154.91
2020-06-01,09:10:00,154.91
2020-06-01,09:20:00,154.91
2020-06-01,09:30:00,154.9
2020-06-01,09:40:00,154.89
2020-06-01,09:50:00,154.89
2020-06-01,10:00:00,154.9
2020-06-01,10:10:00,154.89
2020-06-01,10:20:00,154.88
2020-06-01,10:30:00,154.88
2020-06-01,10:40:00,154.88
2020-06-01,10:50:00,154.87
2020-06-01,11:00:00,154.88
2020-06-01,11:10:00,154.87
2020-06-01,11:20:00,154.88
2020-06-01,11:30:00,154.86
2020-06-01,11:40:00,154.88
2020-06-01,11:50:00,154.87
2020-06-01,12:00:00,154.88
2020-06-01,12:10:00,154.88
2020-06-01,12:20:00,154.87
2020-06-01,12:30:00,154.86
2020-06-01,12:40:00,154.86
2020-06-01,12:50:00,154.86
2020-06-01,13:00:00,154.86
2020-06-01,13:10:00,154.86
2020-06-01,13:20:00,154.86
2020-06-01,13:30:00,154.85
2020-06-01,13:40:00,154.86
2020-06-01,13:50:00,154.86
2020-06-01,14:00:00,154.86
2020-06-01,14:10:00,154.86
2020-06-01,14:20:00,154.85
2020-06-01,14:30:00,154.85
2020-06-01,14:40:00,154.86
2020-06-01,14:50:00,154.86
2020-06-01,15:00:00,154.85
2020-06-01,15:10:00,154.85
2020-06-01,15:20:00,154.85
2020-06-01,15:30:00,154.85
2020-06-01,15:40:00,154.84
2020-06-01,15:50:00,154.84
2020-06-01,16:00:00,154.85
2020-06-01,16:10:00,154.85
2020-06-01,16:20:00,154.85
2020-06-01,16:30:00,154.85
2020-06-01,16:40:00,154.85
2020-06-01,16:50:00,154.85
2020-06-01,17:00:00,154.85
2020-06-01,17:10:00,154.85
2020-06-01,17:20:00,154.85
2020-06-01,17:30:00,154.85
2020-06-01,17:40:00,154.85
2020-06-01,17:50:00,154.85
2020-06-01,18:00:00,154.84
2020-06-01,18:10:00,154.84
2020-06-01,18:20:00,154.84
2020-06-01,18:30:00,154.84
2020-06-01,18:40:00,154.84
2020-06-01,18:50:00,154.84
2020-06-01,19:00:00,154.84
2020-06-01,19:10:00,154.84
2020-06-01,19:20:00,154.84
2020-06-01,19:30:00,154.84
2020-06-01,19:40:00,154.84
2020-06-01,19:50:00,154.83
2020-06-01,20:00:00,154.83
2020-06-01,20:10:00,154.83
2020-06-01,20:20:00,154.83
2020-06-01,20:30:00,154.83
2020-06-01,20:40:00,154.83
2020-06-01,20:50:00,154.83
2020-06-01,21:00:00,154.83
2020-06-01,21:10:00,154.83
2020-06-01,21:20:00,154.83
2020-06-01,21:30:00,154.83
2020-06-01,21:40:00,154.83
2020-06-01,21:50:00,154.83
2020-06-01,22:00:00,154.82
2020-06-01,22:10:00,154.82
2020-06-01,22:20:00,154.82
2020-06-01,22:30:00,154.82
2020-06-01,22:40:00,154.82
2020-06-01,22:50:00,-
2020-06-01,23:00:00,154.82
2020-06-01,23:10:00,154.82
2020-06-01,23:20:00,154.82
2020-06-01,23:30:00,154.82
2020-06-01,23:40:00,154.81
2020-06-01,23:50:00,154.81
2020-06-02,00:00:00,154.81
2020-06-02,00:10:00,154.81
2020-06-02,00:20:00,154.81
2020-06-02,00:30:00,154.81
2020-06-02,00:40:00,154.81
2020-06-02,00:50:00,154.81
2020-06-02,01:00:00,154.81
2020-06-02,01:10:00,154.81
2020-06-02,01:20:00,154.8
2020-06-02,01:30:00,154.8
2020-06-02,01:40:00,154.8
2020-06-02,01:50:00,154.8
2020-06-02,02:00:00,154.8
2020-06-02,02:10:00,154.8
2020-06-02,02:20:00,154.8
2020-06-02,02:30:00,154.8
2020-06-02,02:40:00,154.8
2020-06-02,02:50:00,154.8
2020-06-02,03:00:00,154.79
2020-06-02,03:10:00,154.79
2020-06-02,03:20:00,154.79
2020-06-02,03:30:00,154.79
2020-06-02,03:40:00,154.79
2020-06-02,03:50:00,154.79
2020-06-02,04:00:00,154.79
2020-06-02,04:10:00,154.79
2020-06-02,04:20:00,154.79
2020-06-02,04:30:00,154.79
2020-06-02,04:40:00,154.79
2020-06-02,04:50:00,154.79
2020-06-02,05:00:00,154.79
2020-06-02,05:10:00,154.78
2020-06-02,05:20:00,154.78
2020-06-02,05:30:00,154.78
2020-06-02,05:40:00,154.78
2020-06-02,05:50:00,154.78
2020-06-02,06:00:00,-
2020-06-02,06:10:00,-
2020-06-02,06:20:00,154.78
2020-06-02,06:30:00,154.78
2020-06-02,06:40:00,154.77
2020-06-02,06:50:00,154.77
2020-06-02,07:00:00,154.77
2020-06-02,07:10:00,154.77
2020-06-02,07:20:00,154.77
2020-06-02,07:30:00,154.77
2020-06-02,07:40:00,154.77
2020-06-02,07:50:00,154.77
2020-06-02,08:00:00,154.76
2020-06-02,08:10:00,154.76
2020-06-02,08:20:00,154.76
2020-06-02,08:30:00,154.77
2020-06-02,08:40:00,154.76
2020-06-02,08:50:00,154.76
2020-06-02,09:00:00,154.75
2020-06-02,09:10:00,154.74
2020-06-02,09:20:00,154.74
2020-06-02,09:30:00,154.76
2020-06-02,09:40:00,154.75
2020-06-02,09:50:00,154.75
2020-06-02,10:00:00,154.75
2020-06-02,10:10:00,154.74
2020-06-02,10:20:00,154.75
2020-06-02,10:30:00,154.74
2020-06-02,10:40:00,154.74
2020-06-02,10:50:00,154.75
2020-06-02,11:00:00,154.73
2020-06-02,11:10:00,154.75
2020-06-02,11:20:00,154.75
2020-06-02,11:30:00,154.74
2020-06-02,11:40:00,154.73
2020-06-02,11:50:00,154.73
2020-06-02,12:00:00,154.73
2020-06-02,12:10:00,154.74
2020-06-02,12:20:00,154.73
2020-06-02,12:30:00,154.73
2020-06-02,12:40:00,154.73
2020-06-02,12:50:00,154.73
2020-06-02,13:00:00,154.73
2020-06-02,13:10:00,154.73
2020-06-02,13:20:00,154.73
2020-06-02,13:30:00,154.74
2020-06-02,13:40:00,154.73
2020-06-02,13:50:00,154.73
2020-06-02,14:00:00,154.73
2020-06-02,14:10:00,154.72
2020-06-02,14:20:00,154.72
2020-06-02,14:30:00,154.73
2020-06-02,14:40:00,154.73
2020-06-02,14:50:00,154.72
2020-06-02,15:00:00,154.72
2020-06-02,15:10:00,154.72
2020-06-02,15:20:00,154.72
2020-06-02,15:30:00,154.73
2020-06-02,15:40:00,154.73
2020-06-02,15:50:00,154.72
2020-06-02,16:00:00,154.73
2020-06-02,16:10:00,154.73
2020-06-02,16:20:00,154.71
2020-06-02,16:30:00,154.72
2020-06-02,16:40:00,154.72
2020-06-02,16:50:00,154.71
2020-06-02,17:00:00,154.71
2020-06-02,17:10:00,154.72
2020-06-02,17:20:00,154.72
2020-06-02,17:30:00,154.71
2020-06-02,17:40:00,154.7
2020-06-02,17:50:00,154.7
2020-06-02,18:00:00,154.71
2020-06-02,18:10:00,154.71
2020-06-02,18:20:00,154.71
2020-06-02,18:30:00,154.71
2020-06-02,18:40:00,154.72
2020-06-02,18:50:00,154.72
2020-06-02,19:00:00,154.72
2020-06-02,19:10:00,154.71
2020-06-02,19:20:00,154.7
2020-06-02,19:30:00,154.72
2020-06-02,19:40:00,154.72
2020-06-02,19:50:00,154.73
2020-06-02,20:00:00,154.73
2020-06-02,20:10:00,154.73
2020-06-02,20:20:00,154.73
2020-06-02,20:30:00,154.73
2020-06-02,20:40:00,154.73
2020-06-02,20:50:00,154.74
2020-06-02,21:00:00,154.74
2020-06-02,21:10:00,154.75
2020-06-02,21:20:00,154.75
2020-06-02,21:30:00,154.76
2020-06-02,21:40:00,154.76
2020-06-02,21:50:00,154.77
2020-06-02,22:00:00,154.77
2020-06-02,22:10:00,154.78
2020-06-02,22:20:00,154.79
2020-06-02,22:30:00,154.79
2020-06-02,22:40:00,154.8
2020-06-02,22:50:00,154.8
2020-06-02,23:00:00,154.81
2020-06-02,23:10:00,154.82
2020-06-02,23:20:00,154.82
2020-06-02,23:30:00,154.83
2020-06-02,23:40:00,154.84
2020-06-02,23:50:00,154.84
2020-06-03,00:00:00,154.85
2020-06-03,00:10:00,154.86
2020-06-03,00:20:00,154.86
2020-06-03,00:30:00,154.86
2020-06-03,00:40:00,154.87
2020-06-03,00:50:00,154.88
2020-06-03,01:00:00,154.88
2020-06-03,01:10:00,154.89
2020-06-03,01:20:00,154.89
2020-06-03,01:30:00,154.89
2020-06-03,01:40:00,154.89
2020-06-03,01:50:00,154.9
2020-06-03,02:00:00,154.91
2020-06-03,02:10:00,154.91
2020-06-03,02:20:00,154.91
2020-06-03,02:30:00,154.92
2020-06-03,02:40:00,154.92
2020-06-03,02:50:00,154.92
2020-06-03,03:00:00,154.92
2020-06-03,03:10:00,154.92
2020-06-03,03:20:00,154.93
2020-06-03,03:30:00,154.93
2020-06-03,03:40:00,154.93
2020-06-03,03:50:00,154.93
2020-06-03,04:00:00,154.93
2020-06-03,04:10:00,154.94
2020-06-03,04:20:00,154.94
2020-06-03,04:30:00,154.94
2020-06-03,04:40:00,154.94
2020-06-03,04:50:00,154.94
2020-06-03,05:00:00,154.94
2020-06-03,05:10:00,154.94
2020-06-03,05:20:00,154.94
2020-06-03,05:30:00,154.94
2020-06-03,05:40:00,154.94
2020-06-03,05:50:00,154.94
2020-06-03,06:00:00,154.95
2020-06-03,06:10:00,154.95
2020-06-03,06:20:00,154.95
2020-06-03,06:30:00,154.95
2020-06-03,06:40:00,154.95
2020-06-03,06:50:00,154.95
2020-06-03,07:00:00,154.94
2020-06-03,07:10:00,154.94
2020-06-03,07:20:00,154.94
2020-06-03,07:30:00,154.94
2020-06-03,07:40:00,154.94
2020-06-03,07:50:00,154.94
2020-06-03,08:00:00,154.94
2020-06-03,08:10:00,154.94
2020-06-03,08:20:00,154.94
2020-06-03,08:30:00,154.94
2020-06-03,08:40:00,154.94
2020-06-03,08:50:00,154.94
2020-06-03,09:00:00,154.94
2020-06-03,09:10:00,154.94
2020-06-03,09:20:00,154.94
2020-06-03,09:30:00,154.94
2020-06-03,09:40:00,154.92
2020-06-03,09:50:00,154.94
2020-06-03,10:00:00,154.92
2020-06-03,10:10:00,154.93
2020-06-03,10:20:00,154.92
2020-06-03,10:30:00,154.93
2020-06-03,10:40:00,154.92
2020-06-03,10:50:00,154.92
2020-06-03,11:00:00,154.91
2020-06-03,11:10:00,154.92
2020-06-03,11:20:00,154.92
2020-06-03,11:30:00,154.93
2020-06-03,11:40:00,154.92
2020-06-03,11:50:00,154.92
2020-06-03,12:00:00,154.91
2020-06-03,12:10:00,154.93
2020-06-03,12:20:00,154.91
2020-06-03,12:30:00,154.93
2020-06-03,12:40:00,154.91
2020-06-03,12:50:00,154.91
2020-06-03,13:00:00,154.92
2020-06-03,13:10:00,154.92
2020-06-03,13:20:00,154.91
2020-06-03,13:30:00,154.92
2020-06-03,13:40:00,154.91
2020-06-03,13:50:00,154.92
2020-06-03,14:00:00,154.91
2020-06-03,14:10:00,154.9
2020-06-03,14:20:00,154.92
2020-06-03,14:30:00,154.9
2020-06-03,14:40:00,154.91
2020-06-03,14:50:00,154.91
2020-06-03,15:00:00,154.91
2020-06-03,15:10:00,154.91
2020-06-03,15:20:00,154.9
2020-06-03,15:30:00,154.91
2020-06-03,15:40:00,154.91
2020-06-03,15:50:00,154.91
2020-06-03,16:00:00,154.91
2020-06-03,16:10:00,154.91
2020-06-03,16:20:00,154.91
2020-06-03,16:30:00,154.9
2020-06-03,16:40:00,154.9
2020-06-03,16:50:00,154.9
2020-06-03,17:00:00,154.9
2020-06-03,17:10:00,154.9
2020-06-03,17:20:00,154.9
2020-06-03,17:30:00,154.9
2020-06-03,17:40:00,154.89
2020-06-03,17:50:00,154.9
2020-06-03,18:00:00,154.9
2020-06-03,18:10:00,154.9
2020-06-03,18:20:00,154.9
2020-06-03,18:30:00,154.91
2020-06-03,18:40:00,154.92
2020-06-03,18:50:00,154.93
2020-06-03,19:00:00,154.94
2020-06-03,19:10:00,154.95
2020-06-03,19:20:00,154.96
2020-06-03,19:30:00,154.98
2020-06-03,19:40:00,154.99
2020-06-03,19:50:00,155.01
2020-06-03,20:00:00,155.03
2020-06-03,20:10:00,155.04
2020-06-03,20:20:00,155.06
2020-06-03,20:30:00,155.08
2020-06-03,20:40:00,155.09
2020-06-03,20:50:00,155.11
2020-06-03,21:00:00,155.12
2020-06-03,21:10:00,155.13
2020-06-03,21:20:00,155.14
2020-06-03,21:30:00,155.15
2020-06-03,21:40:00,155.16
2020-06-03,21:50:00,155.17
2020-06-03,22:00:00,155.17
2020-06-03,22:10:00,155.18
2020-06-03,22:20:00,155.18
2020-06-03,22:30:00,155.19
2020-06-03,22:40:00,155.19
2020-06-03,22:50:00,155.19
2020-06-03,23:00:00,155.19
2020-06-03,23:10:00,155.2
2020-06-03,23:20:00,155.2
2020-06-03,23:30:00,155.2
2020-06-03,23:40:00,155.2
2020-06-03,23:50:00,155.2
2020-06-04,00:00:00,155.2
2020-06-04,00:10:00,155.19
2020-06-04,00:20:00,-
2020-06-04,00:30:00,-
2020-06-04,00:40:00,-
2020-06-04,00:50:00,-
2020-06-04,01:00:00,155.19
2020-06-04,01:10:00,155.18
2020-06-04,01:20:00,155.18
2020-06-04,01:30:00,155.18
2020-06-04,01:40:00,155.18
2020-06-04,01:50:00,155.17
2020-06-04,02:00:00,155.17
2020-06-04,02:10:00,155.17
2020-06-04,02:20:00,155.17
2020-06-04,02:30:00,155.17
2020-06-04,02:40:00,155.16
2020-06-04,02:50:00,155.16
2020-06-04,03:00:00,155.16
2020-06-04,03:10:00,155.15
2020-06-04,03:20:00,155.15
2020-06-04,03:30:00,155.15
2020-06-04,03:40:00,155.15
2020-06-04,03:50:00,155.15
2020-06-04,04:00:00,155.15
2020-06-04,04:10:00,155.15
2020-06-04,04:20:00,155.15
2020-06-04,04:30:00,155.14
2020-06-04,04:40:00,155.14
2020-06-04,04:50:00,155.14
2020-06-04,05:00:00,155.14
2020-06-04,05:10:00,155.14
2020-06-04,05:20:00,155.14
2020-06-04,05:30:00,155.14
2020-06-04,05:40:00,155.14
2020-06-04,05:50:00,155.14
2020-06-04,06:00:00,155.13
2020-06-04,06:10:00,155.13
2020-06-04,06:20:00,155.13
2020-06-04,06:30:00,155.13
2020-06-04,06:40:00,155.13
2020-06-04,06:50:00,155.13
2020-06-04,07:00:00,155.13
2020-06-04,07:10:00,155.12
2020-06-04,07:20:00,155.12
2020-06-04,07:30:00,155.12
2020-06-04,07:40:00,155.12
2020-06-04,07:50:00,155.12
2020-06-04,08:00:00,155.12
2020-06-04,08:10:00,155.12
2020-06-04,08:20:00,155.12
2020-06-04,08:30:00,155.11
2020-06-04,08:40:00,155.11
2020-06-04,08:50:00,155.11
2020-06-04,09:00:00,155.11
2020-06-04,09:10:00,155.11
2020-06-04,09:20:00,-
2020-06-04,09:30:00,155.1
2020-06-04,09:40:00,155.1
2020-06-04,09:50:00,-
2020-06-04,10:00:00,155.1
2020-06-04,10:10:00,155.09
2020-06-04,10:20:00,155.09
2020-06-04,10:30:00,155.09
2020-06-04,10:40:00,155.09
2020-06-04,10:50:00,155.09
2020-06-04,11:00:00,155.08
2020-06-04,11:10:00,155.08
2020-06-04,11:20:00,155.08
2020-06-04,11:30:00,155.08
2020-06-04,11:40:00,155.08
2020-06-04,11:50:00,155.08
2020-06-04,12:00:00,155.07
2020-06-04,12:10:00,155.07
2020-06-04,12:20:00,155.07
2020-06-04,12:30:00,155.07
2020-06-04,12:40:00,155.07
2020-06-04,12:50:00,155.06
2020-06-04,13:00:00,155.06
2020-06-04,13:10:00,155.06
2020-06-04,13:20:00,155.06
2020-06-04,13:30:00,155.06
2020-06-04,13:40:00,155.06
2020-06-04,13:50:00,155.06
2020-06-04,14:00:00,155.05
2020-06-04,14:10:00,155.05
2020-06-04,14:20:00,155.05
2020-06-04,14:30:00,155.05
2020-06-04,14:40:00,155.05
2020-06-04,14:50:00,155.05
2020-06-04,15:00:00,155.05
2020-06-04,15:10:00,155.05
2020-06-04,15:20:00,155.05
2020-06-04,15:30:00,155.05
2020-06-04,15:40:00,155.05
2020-06-04,15:50:00,155.05
2020-06-04,16:00:00,155.05
2020-06-04,16:10:00,155.05
2020-06-04,16:20:00,155.05
2020-06-04,16:30:00,155.05
2020-06-04,16:40:00,155.05
2020-06-04,16:50:00,155.05
2020-06-04,17:00:00,155.05
2020-06-04,17:10:00,155.05
2020-06-04,17:20:00,155.05
2020-06-04,17:30:00,155.05
2020-06-04,17:40:00,155.05
2020-06-04,17:50:00,155.05
2020-06-04,18:00:00,155.05
2020-06-04,18:10:00,155.05
2020-06-04,18:20:00,155.05
2020-06-04,18:30:00,155.05
2020-06-04,18:40:00,155.05
2020-06-04,18:50:00,155.05
2020-06-04,19:00:00,155.05
2020-06-04,19:10:00,155.05
2020-06-04,19:20:00,155.05
2020-06-04,19:30:00,155.05
2020-06-04,19:40:00,155.05
2020-06-04,19:50:00,155.05
2020-06-04,20:00:00,155.05
2020-06-04,20:10:00,155.05
2020-06-04,20:20:00,155.05
2020-06-04,20:30:00,155.04
2020-06-04,20:40:00,155.04
2020-06-04,20:50:00,155.04
2020-06-04,21:00:00,155.04
2020-06-04,21:10:00,155.04
2020-06-04,21:20:00,155.04
2020-06-04,21:30:00,155.04
2020-06-04,21:40:00,155.03
2020-06-04,21:50:00,155.03
2020-06-04,22:00:00,155.03
2020-06-04,22:10:00,155.03
2020-06-04,22:20:00,155.03
2020-06-04,22:30:00,155.03
2020-06-04,22:40:00,155.03
2020-06-04,22:50:00,155.03
2020-06-04,23:00:00,-
2020-06-04,23:10:00,155.02
2020-06-04,23:20:00,155.02
2020-06-04,23:30:00,155.02
2020-06-04,23:40:00,155.02
2020-06-04,23:50:00,155.02
2020-06-05,00:00:00,-
2020-06-05,00:10:00,155.01
2020-06-05,00:20:00,155.01
2020-06-05,00:30:00,155.01
2020-06-05,00:40:00,155.01
2020-06-05,00:50:00,155.01
2020-06-05,01:00:00,155
2020-06-05,01:10:00,155
2020-06-05,01:20:00,155
2020-06-05,01:30:00,155
2020-06-05,01:40:00,155
2020-06-05,01:50:00,155
2020-06-05,02:00:00,154.99
2020-06-05,02:10:00,154.99
2020-06-05,02:20:00,154.99
2020-06-05,02:30:00,154.99
2020-06-05,02:40:00,154.99
2020-06-05,02:50:00,154.98
2020-06-05,03:00:00,154.98
2020-06-05,03:10:00,154.98
2020-06-05,03:20:00,154.98
2020-06-05,03:30:00,154.98
2020-06-05,03:40:00,154.98
2020-06-05,03:50:00,154.98
2020-06-05,04:00:00,154.97
2020-06-05,04:10:00,154.97
2020-06-05,04:20:00,154.97
2020-06-05,04:30:00,154.97
2020-06-05,04:40:00,154.97
2020-06-05,04:50:00,154.97
2020-06-05,05:00:00,154.97
2020-06-05,05:10:00,154.97
2020-06-05,05:20:00,154.96
2020-06-05,05:30:00,154.96
2020-06-05,05:40:00,154.96
2020-06-05,05:50:00,154.96
2020-06-05,06:00:00,154.96
2020-06-05,06:10:00,154.96
2020-06-05,06:20:00,154.97
2020-06-05,06:30:00,154.97
2020-06-05,06:40:00,154.98
2020-06-05,06:50:00,154.98
2020-06-05,07:00:00,154.99
2020-06-05,07:10:00,155
2020-06-05,07:20:00,155.01
2020-06-05,07:30:00,155.02
2020-06-05,07:40:00,155.03
2020-06-05,07:50:00,155.05
2020-06-05,08:00:00,155.06
2020-06-05,08:10:00,155.07
2020-06-05,08:20:00,155.08
2020-06-05,08:30:00,155.09
2020-06-05,08:40:00,155.1
2020-06-05,08:50:00,155.11
2020-06-05,09:00:00,155.12
2020-06-05,09:10:00,155.12
2020-06-05,09:20:00,155.13
2020-06-05,09:30:00,155.13
2020-06-05,09:40:00,155.14
2020-06-05,09:50:00,155.14
2020-06-05,10:00:00,155.14
2020-06-05,10:10:00,155.15
2020-06-05,10:20:00,155.15
2020-06-05,10:30:00,155.15
2020-06-05,10:40:00,155.15
2020-06-05,10:50:00,155.15
2020-06-05,11:00:00,155.14
2020-06-05,11:10:00,155.14
2020-06-05,11:20:00,155.14
2020-06-05,11:30:00,155.14
2020-06-05,11:40:00,155.14
2020-06-05,11:50:00,155.14
2020-06-05,12:00:00,155.13
2020-06-05,12:10:00,155.13
2020-06-05,12:20:00,155.13
2020-06-05,12:30:00,155.12
2020-06-05,12:40:00,155.12
2020-06-05,12:50:00,155.12
2020-06-05,13:00:00,155.11
2020-06-05,13:10:00,155.11
2020-06-05,13:20:00,155.11
2020-06-05,13:30:00,155.1
2020-06-05,13:40:00,155.1
2020-06-05,13:50:00,155.09
2020-06-05,14:00:00,155.09
2020-06-05,14:10:00,155.09
2020-06-05,14:20:00,155.08
2020-06-05,14:30:00,155.08
2020-06-05,14:40:00,155.07
2020-06-05,14:50:00,155.07
2020-06-05,15:00:00,155.06
2020-06-05,15:10:00,155.06
2020-06-05,15:20:00,155.05
2020-06-05,15:30:00,155.06
2020-06-05,15:40:00,155.06
2020-06-05,15:50:00,155.05
2020-06-05,16:00:00,155.04
2020-06-05,16:10:00,155.05
2020-06-05,16:20:00,155.04
2020-06-05,16:30:00,155.04
2020-06-05,16:40:00,155.03
2020-06-05,16:50:00,155.03
2020-06-05,17:00:00,155.03
2020-06-05,17:10:00,155.02
2020-06-05,17:20:00,-
2020-06-05,17:30:00,-
2020-06-05,17:40:00,-
2020-06-05,17:50:00,155.01
2020-06-05,18:00:00,155.01
2020-06-05,18:10:00,155.01
2020-06-05,18:20:00,155
2020-06-05,18:30:00,155
2020-06-05,18:40:00,155
2020-06-05,18:50:00,155
2020-06-05,19:00:00,154.99
2020-06-05,19:10:00,154.99
2020-06-05,19:20:00,154.99
2020-06-05,19:30:00,154.99
2020-06-05,19:40:00,154.98
2020-06-05,19:50:00,154.97
2020-06-05,20:00:00,154.98
2020-06-05,20:10:00,154.99
2020-06-05,20:20:00,154.98
2020-06-05,20:30:00,154.99
2020-06-05,20:40:00,154.98
2020-06-05,20:50:00,154.98
2020-06-05,21:00:00,154.98
2020-06-05,21:10:00,154.97
2020-06-05,21:20:00,154.97
2020-06-05,21:30:00,154.97
2020-06-05,21:40:00,154.97
2020-06-05,21:50:00,154.97
2020-06-05,22:00:00,154.96
2020-06-05,22:10:00,154.95
2020-06-05,22:20:00,154.96
2020-06-05,22:30:00,154.96
2020-06-05,22:40:00,154.95
2020-06-05,22:50:00,154.94
2020-06-05,23:00:00,154.95
2020-06-05,23:10:00,154.95
2020-06-05,23:20:00,154.95
2020-06-05,23:30:00,154.94
2020-06-05,23:40:00,154.94
2020-06-05,23:50:00,154.94
2020-06-06,00:00:00,154.94
2020-06-06,00:10:00,154.94
2020-06-06,00:20:00,154.94
2020-06-06,00:30:00,154.94
2020-06-06,00:40:00,154.94
2020-06-06,00:50:00,154.93
2020-06-06,01:00:00,154.93
2020-06-06,01:10:00,154.93
2020-06-06,01:20:00,154.93
2020-06-06,01:30:00,154.93
2020-06-06,01:40:00,154.93
2020-06-06,01:50:00,154.93
2020-06-06,02:00:00,154.93
2020-06-06,02:10:00,154.93
2020-06-06,02:20:00,154.93
2020-06-06,02:30:00,154.93
2020-06-06,02:40:00,154.93
2020-06-06,02:50:00,154.93
2020-06-06,03:00:00,154.92
2020-06-06,03:10:00,154.93
2020-06-06,03:20:00,154.92
2020-06-06,03:30:00,154.92
2020-06-06,03:40:00,154.92
2020-06-06,03:50:00,154.92
2020-06-06,04:00:00,154.93
2020-06-06,04:10:00,154.92
2020-06-06,04:20:00,154.92
2020-06-06,04:30:00,154.92
2020-06-06,04:40:00,154.92
2020-06-06,04:50:00,154.92
2020-06-06,05:00:00,154.92
2020-06-06,05:10:00,154.92
2020-06-06,05:20:00,154.92
2020-06-06,05:30:00,154.92
2020-06-06,05:40:00,154.92
2020-06-06,05:50:00,154.92
2020-06-06,06:00:00,154.92
2020-06-06,06:10:00,154.92
2020-06-06,06:20:00,154.92
2020-06-06,06:30:00,154.92
2020-06-06,06:40:00,154.93
2020-06-06,06:50:00,154.96
2020-06-06,07:00:00,155.04
2020-06-06,07:10:00,155.16
2020-06-06,07:20:00,155.35
2020-06-06,07:30:00,155.53
2020-06-06,07:40:00,155.66
2020-06-06,07:50:00,155.76
2020-06-06,08:00:00,155.83
2020-06-06,08:10:00,155.89
2020-06-06,08:20:00,155.91
2020-06-06,08:30:00,155.93
2020-06-06,08:40:00,155.94
2020-06-06,08:50:00,155.95
2020-06-06,09:00:00,155.95
2020-06-06,09:10:00,155.95
2020-06-06,09:20:00,155.95
2020-06-06,09:30:00,155.95
2020-06-06,09:40:00,155.94
2020-06-06,09:50:00,155.93
2020-06-06,10:00:00,155.92
2020-06-06,10:10:00,155.91
2020-06-06,10:20:00,155.9
2020-06-06,10:30:00,155.88
2020-06-06,10:40:00,155.87
2020-06-06,10:50:00,155.86
2020-06-06,11:00:00,155.84
2020-06-06,11:10:00,155.83
2020-06-06,11:20:00,155.82
2020-06-06,11:30:00,155.82
2020-06-06,11:40:00,155.82
2020-06-06,11:50:00,-
2020-06-06,12:00:00,155.87
2020-06-06,12:10:00,155.91
2020-06-06,12:20:00,155.96
2020-06-06,12:30:00,156.02
2020-06-06,12:40:00,156.08
2020-06-06,12:50:00,156.14
2020-06-06,13:00:00,156.19
2020-06-06,13:10:00,156.24
2020-06-06,13:20:00,156.28
2020-06-06,13:30:00,156.32
2020-06-06,13:40:00,156.35
2020-06-06,13:50:00,156.38
2020-06-06,14:00:00,156.37
2020-06-06,14:10:00,156.37
2020-06-06,14:20:00,156.38
2020-06-06,14:30:00,156.38
2020-06-06,14:40:00,156.38
2020-06-06,14:50:00,156.37
2020-06-06,15:00:00,156.36
2020-06-06,15:10:00,156.35
2020-06-06,15:20:00,156.34
2020-06-06,15:30:00,156.32
2020-06-06,15:40:00,156.3
2020-06-06,15:50:00,156.28
2020-06-06,16:00:00,156.26
2020-06-06,16:10:00,156.23
2020-06-06,16:20:00,156.21
2020-06-06,16:30:00,156.18
2020-06-06,16:40:00,156.16
2020-06-06,16:50:00,156.13
2020-06-06,17:00:00,156.1
2020-06-06,17:10:00,156.07
2020-06-06,17:20:00,156.05
2020-06-06,17:30:00,156.02
2020-06-06,17:40:00,156
2020-06-06,17:50:00,155.97
2020-06-06,18:00:00,155.95
2020-06-06,18:10:00,155.92
2020-06-06,18:20:00,155.9
2020-06-06,18:30:00,155.88
2020-06-06,18:40:00,155.86
2020-06-06,18:50:00,155.84
2020-06-06,19:00:00,155.82
2020-06-06,19:10:00,155.8
2020-06-06,19:20:00,155.78
2020-06-06,19:30:00,155.76
2020-06-06,19:40:00,155.75
2020-06-06,19:50:00,155.73
2020-06-06,20:00:00,155.71
2020-06-06,20:10:00,155.7
2020-06-06,20:20:00,155.68
2020-06-06,20:30:00,155.67
2020-06-06,20:40:00,155.65
2020-06-06,20:50:00,155.64
2020-06-06,21:00:00,155.63
2020-06-06,21:10:00,155.61
2020-06-06,21:20:00,155.6
2020-06-06,21:30:00,155.59
2020-06-06,21:40:00,155.58
2020-06-06,21:50:00,155.56
2020-06-06,22:00:00,155.55
2020-06-06,22:10:00,155.54
2020-06-06,22:20:00,155.53
2020-06-06,22:30:00,155.52
2020-06-06,22:40:00,155.51
2020-06-06,22:50:00,155.49
2020-06-06,23:00:00,155.48
2020-06-06,23:10:00,155.47
2020-06-06,23:20:00,155.46
2020-06-06,23:30:00,155.45
2020-06-06,23:40:00,155.44
2020-06-06,23:50:00,155.43
2020-06-07,00:00:00,155.42
2020-06-07,00:10:00,155.41
2020-06-07,00:20:00,155.4
2020-06-07,00:30:00,155.39
2020-06-07,00:40:00,155.39
2020-06-07,00:50:00,155.38
2020-06-07,01:00:00,155.37
2020-06-07,01:10:00,155.36
2020-06-07,01:20:00,155.36
2020-06-07,01:30:00,155.34
2020-06-07,01:40:00,155.34
2020-06-07,01:50:00,155.33
2020-06-07,02:00:00,-
2020-06-07,02:10:00,-
2020-06-07,02:20:00,-
2020-06-07,02:30:00,-
2020-06-07,02:40:00,-
2020-06-07,02:50:00,-
2020-06-07,03:00:00,155.29
2020-06-07,03:10:00,155.28
2020-06-07,03:20:00,155.28
2020-06-07,03:30:00,155.27
2020-06-07,03:40:00,155.26
2020-06-07,03:50:00,155.26
2020-06-07,04:00:00,155.25
2020-06-07,04:10:00,155.25
2020-06-07,04:20:00,155.24
2020-06-07,04:30:00,155.24
2020-06-07,04:40:00,155.23
2020-06-07,04:50:00,155.23
2020-06-07,05:00:00,155.22
2020-06-07,05:10:00,155.21